Temp
77 77 78 77 77 78 78 77 78 78 78 78 78 78 78 79 80 80 80 80 79 79 79 78 78 78 79 77 77 77 78 76 76 75 76 76 76 77 79 79 78 77
77 78 79 78 77 78 78 79 78 78 78 77 78 78 79 79 80 80 80 80 80 80 79 79 78 78 78 77 76 76 76 76 76 80 76 76 76 76 78 78 77 77
77 77 78 78 78 78 80 79 78 78 79 79 79 79 80 81 81 79 80 80 80 80 79 79 78 78 78 77 76 77 77 75 75 76 77 76 76 77 78 79 77 78
77 78 79 79 79 79 80 79 78 78 79 79 79 81 82 84 81 80 79 81 79 79 79 79 79 79 78 78 77 76 76 76 76 76 76 76 77 77 77 76 77 77
78 78 79 79 79 79 79 79 80 79 79 80 81 80 80 80 80 80 80 80 79 79 79 79 79 79 78 78 77 76 76 76 76 75 75 75 76 77 78 77 76 76
78 78 77 79 79 78 79 79 80 80 80 80 80 81 81 81 80 81 80 80 80 80 80 79 79 79 79 78 77 77 77 77 77 76 76 75 77 77 79 78 76 76
79 78 78 79 79 79 79 79 79 80 81 81 80 80 81 81 80 80 81 81 81 80 80 79 78 79 79 78 77 76 76 77 76 76 76 76 76 76 77 77 76 76
81 80 79 78 80 79 79 79 79 79 80 81 81 81 81 82 81 82 81 82 82 80 80 80 79 78 79 78 77 76 76 79 78 76 76 76 75 76 76 77 76 75
82 81 80 79 80 80 80 81 81 80 80 81 82 83 82 82 81 82 81 80 81 80 79 79 79 79 79 78 78 77 77 78 79 77 76 76 76 76 76 76 75 75
78 80 81 81 81 82 81 82 83 83 81 81 82 83 83 81 81 82 81 79 80 80 79 79 78 79 79 79 79 78 77 77 77 77 77 77 77 77 77 76 76 75
77 76 78 80 82 83 83 83 83 84 83 82 83 83 83 83 80 80 80 79 81 80 80 79 79 79 79 79 79 79 79 79 78 77 77 77 78 78 79 77 76 76
74 74 73 74 75 76 79 83 84 84 84 83 83 83 82 83 82 81 81 80 80 81 80 80 80 79 79 79 80 80 79 79 79 78 78 78 78 78 78 78 78 77
74 73 73 75 74 74 75 75 77 80 83 84 84 84 83 82 83 82 81 81 80 81 81 80 80 79 78 79 80 79 79 79 79 79 78 78 78 79 79 79 79 79
74 74 74 73 73 73 74 76 77 76 76 76 79 81 83 84 84 83 82 82 81 81 81 81 80 80 78 78 79 80 79 79 79 79 79 78 78 79 79 80 80 80
73 74 74 74 74 73 72 73 75 77 77 77 76 79 83 84 85 85 83 82 83 82 81 81 81 81 81 79 79 79 80 79 78 78 79 78 78 79 79 79 80 81
73 74 73 73 73 73 73 73 74 75 78 78 78 78 77 78 79 81 84 83 82 82 81 82 82 83 80 76 77 80 79 81 80 78 78 78 78 78 78 79 80 81
73 73 73 73 73 73 74 74 75 76 76 77 77 78 77 76 77 80 82 84 83 83 82 83 84 85 76 70 71 74 81 79 79 78 77 77 78 77 77 79 80 80
73 74 73 73 73 73 74 74 74 75 76 77 78 78 78 78 78 78 78 81 83 83 83 83 83 79 72 69 70 69 75 81 80 80 79 77 77 77 78 78 78 80
73 74 73 73 73 74 73 73 73 74 74 75 76 77 77 76 75 75 75 77 80 80 82 83 83 76 70 69 68 68 68 76 82 81 81 80 78 77 77 77 77 77
72 73 73 73 74 74 73 73 73 73 73 74 75 75 74 74 76 76 75 73 75 77 79 82 82 77 69 67 67 67 67 70 81 82 81 81 80 80 80 78 77 77
71 72 73 73 74 73 72 72 72 73 73 73 73 73 73 73 74 74 74 74 76 76 76 76 83 75 68 64 63 64 65 67 78 81 81 81 80 80 80 80 79 78
71 71 72 73 73 73 73 73 73 72 72 73 74 73 73 73 73 73 73 73 74 74 75 74 77 63 64 63 62 62 64 69 71 73 76 78 79 79 80 79 80 79
71 71 71 71 71 71 71 72 72 72 73 73 73 72 73 72 73 73 73 73 73 73 73 73 76 65 61 59 58 60 63 69 70 73 73 75 76 77 77 78 79 79
70 71 70 70 70 70 70 70 71 72 72 74 73 73 72 72 73 73 73 73 73 73 74 73 75 67 61 59 58 59 66 69 69 70 71 73 75 76 76 76 77 81
70 70 70 70 70 70 70 70 70 71 72 73 72 72 72 73 74 73 73 73 74 74 76 74 74 69 58 57 57 56 65 70 70 70 70 72 73 74 76 77 76 79
69 69 70 69 69 70 69 69 71 71 70 71 71 72 72 73 73 73 73 73 74 74 75 75 74 74 64 55 55 55 60 69 70 70 71 72 73 74 74 76 77 78
MSLP
1018.54 1018.62 1018.78 1018.98 1019.10 1019.14 1019.38 1019.66 1019.70 1019.82 1019.94 1019.98 1020.18 1020.22 1020.18 1020.06 1019.98 1020.06 1020.14 1020.18 1020.30 1020.46 1020.54 1020.66 1020.70 1020.82 1020.90 1021.02 1021.10 1021.22 1021.34 1021.42 1021.42 1021.42 1021.50 1021.54 1021.66 1021.66 1021.74 1021.62 1021.54 1021.58
1018.46 1018.50 1018.50 1018.70 1018.86 1018.94 1019.06 1019.10 1019.38 1019.54 1019.74 1019.78 1019.82 1019.86 1019.86 1019.90 1019.90 1019.94 1020.10 1020.22 1020.26 1020.34 1020.42 1020.54 1020.62 1020.74 1020.90 1021.06 1021.14 1021.30 1021.42 1021.42 1021.58 1021.34 1021.58 1021.62 1021.62 1021.62 1021.66 1021.54 1021.58 1021.42
1018.38 1018.54 1018.54 1018.74 1018.86 1018.94 1018.94 1018.98 1019.06 1019.26 1019.42 1019.46 1019.50 1019.62 1019.74 1019.66 1019.86 1019.86 1019.94 1020.06 1020.26 1020.30 1020.42 1020.46 1020.58 1020.66 1020.78 1020.94 1021.06 1021.22 1021.38 1021.50 1021.62 1021.46 1021.50 1021.62 1021.54 1021.62 1021.50 1021.46 1021.50 1021.46
1018.22 1018.26 1018.34 1018.42 1018.54 1018.70 1018.70 1018.90 1019.06 1019.18 1019.22 1019.42 1019.46 1019.34 1019.42 1019.46 1019.58 1019.82 1019.94 1019.98 1020.18 1020.30 1020.34 1020.42 1020.54 1020.62 1020.74 1020.86 1020.98 1021.18 1021.26 1021.34 1021.30 1021.38 1021.58 1021.54 1021.50 1021.54 1021.58 1021.42 1021.42 1021.42
1018.02 1018.14 1018.14 1018.26 1018.34 1018.46 1018.58 1018.82 1018.98 1019.10 1019.22 1019.18 1019.14 1019.14 1019.26 1019.38 1019.54 1019.70 1019.86 1019.98 1020.10 1020.26 1020.34 1020.42 1020.46 1020.58 1020.70 1020.86 1020.98 1021.22 1021.26 1021.34 1021.30 1021.38 1021.58 1021.70 1021.50 1021.54 1021.50 1021.46 1021.58 1021.66
1017.90 1017.98 1018.06 1018.18 1018.26 1018.42 1018.66 1018.74 1018.74 1018.86 1019.02 1019.18 1019.14 1018.98 1019.06 1019.14 1019.34 1019.46 1019.62 1019.90 1020.02 1020.14 1020.30 1020.34 1020.50 1020.54 1020.62 1020.78 1020.94 1021.10 1021.18 1021.34 1021.26 1021.34 1021.54 1021.66 1021.58 1021.42 1021.46 1021.46 1021.62 1021.74
1017.86 1017.98 1018.14 1018.10 1018.22 1018.26 1018.46 1018.54 1018.58 1018.62 1018.70 1018.74 1018.82 1018.98 1018.90 1019.10 1019.22 1019.30 1019.34 1019.50 1019.78 1020.02 1020.14 1020.30 1020.46 1020.58 1020.54 1020.66 1020.90 1021.10 1021.14 1021.14 1021.18 1021.34 1021.50 1021.50 1021.50 1021.54 1021.34 1021.46 1021.58 1021.70
1017.58 1017.66 1017.82 1018.02 1018.22 1018.30 1018.38 1018.42 1018.46 1018.50 1018.46 1018.54 1018.82 1018.74 1018.78 1018.94 1019.06 1019.10 1019.18 1019.26 1019.50 1019.74 1019.90 1020.02 1020.18 1020.34 1020.42 1020.54 1020.82 1021.02 1021.14 1021.10 1021.22 1021.34 1021.50 1021.54 1021.54 1021.66 1021.46 1021.38 1021.46 1021.66
1017.34 1017.58 1017.70 1017.94 1018.18 1018.30 1018.38 1018.34 1018.34 1018.30 1018.26 1018.50 1018.62 1018.62 1018.58 1018.70 1018.82 1018.90 1019.10 1019.22 1019.38 1019.50 1019.70 1019.86 1019.98 1020.18 1020.22 1020.42 1020.66 1020.86 1021.06 1021.10 1021.06 1021.22 1021.42 1021.54 1021.66 1021.58 1021.46 1021.34 1021.50 1021.62
1017.46 1017.50 1017.66 1017.86 1018.10 1018.10 1018.22 1018.18 1018.14 1018.14 1018.14 1018.34 1018.38 1018.38 1018.58 1018.54 1018.58 1018.74 1018.90 1019.14 1019.30 1019.38 1019.50 1019.66 1019.82 1019.98 1020.10 1020.22 1020.38 1020.58 1020.78 1020.94 1020.98 1021.02 1021.10 1021.22 1021.34 1021.34 1021.34 1021.38 1021.46 1021.58
1017.82 1017.62 1017.66 1017.66 1017.70 1017.70 1017.82 1017.86 1017.90 1017.94 1017.94 1018.10 1018.22 1018.38 1018.34 1018.42 1018.58 1018.54 1018.74 1018.94 1019.14 1019.22 1019.30 1019.42 1019.54 1019.70 1019.94 1020.06 1020.10 1020.14 1020.34 1020.54 1020.66 1020.78 1020.82 1020.90 1020.90 1020.98 1021.02 1021.14 1021.26 1021.38
1017.78 1017.74 1017.74 1017.74 1017.70 1017.62 1017.66 1017.62 1017.62 1017.70 1017.78 1017.82 1017.90 1018.18 1018.22 1018.26 1018.42 1018.54 1018.58 1018.70 1018.70 1018.78 1018.86 1018.98 1019.10 1019.30 1019.54 1019.74 1019.86 1019.94 1020.06 1020.18 1020.26 1020.38 1020.46 1020.50 1020.54 1020.62 1020.70 1020.74 1020.94 1020.98
1017.30 1017.50 1017.50 1017.54 1017.50 1017.46 1017.42 1017.50 1017.62 1017.50 1017.50 1017.62 1017.58 1017.74 1017.98 1018.18 1018.14 1018.30 1018.26 1018.38 1018.42 1018.42 1018.58 1018.66 1018.82 1018.98 1019.18 1019.34 1019.46 1019.58 1019.74 1019.94 1020.06 1020.10 1020.14 1020.22 1020.22 1020.18 1020.18 1020.30 1020.42 1020.50
1017.10 1017.10 1017.14 1017.22 1017.34 1017.38 1017.38 1017.26 1017.34 1017.58 1017.46 1017.38 1017.34 1017.58 1017.74 1017.78 1017.90 1018.02 1017.98 1018.06 1018.18 1018.26 1018.26 1018.34 1018.54 1018.74 1018.90 1018.98 1019.14 1019.26 1019.42 1019.58 1019.70 1019.82 1019.94 1019.98 1019.94 1019.90 1019.86 1019.86 1019.90 1019.98
1016.74 1016.78 1016.78 1016.98 1017.26 1017.38 1017.46 1017.58 1017.42 1017.30 1017.38 1017.30 1017.26 1017.26 1017.26 1017.34 1017.46 1017.58 1017.82 1018.02 1017.98 1018.06 1018.18 1018.26 1018.46 1018.58 1018.58 1018.74 1018.98 1019.06 1019.06 1019.26 1019.38 1019.50 1019.62 1019.74 1019.74 1019.74 1019.66 1019.58 1019.54 1019.50
1016.54 1016.66 1016.74 1016.90 1017.14 1017.38 1017.38 1017.38 1017.42 1017.34 1017.26 1017.34 1017.18 1017.06 1017.10 1017.10 1017.22 1017.42 1017.62 1017.78 1017.94 1017.94 1017.98 1018.10 1018.22 1018.18 1018.14 1018.22 1018.34 1018.58 1018.74 1018.78 1018.94 1019.06 1019.18 1019.30 1019.46 1019.54 1019.46 1019.34 1019.26 1019.22
1016.54 1016.62 1016.70 1016.90 1016.94 1017.06 1017.18 1017.30 1017.34 1017.22 1017.14 1017.18 1017.14 1017.06 1017.02 1017.06 1017.10 1017.34 1017.46 1017.50 1017.62 1017.70 1017.82 1017.78 1017.70 1017.58 1017.62 1017.86 1017.98 1017.98 1018.18 1018.42 1018.62 1018.74 1018.78 1018.90 1019.06 1019.22 1019.30 1019.18 1018.98 1018.86
1016.50 1016.58 1016.78 1016.90 1016.94 1016.98 1016.94 1016.98 1016.98 1016.90 1016.82 1016.86 1016.98 1017.06 1016.98 1017.02 1017.18 1017.10 1017.06 1017.14 1017.22 1017.34 1017.46 1017.38 1017.30 1017.02 1017.14 1017.34 1017.50 1017.58 1017.70 1017.86 1018.06 1018.30 1018.46 1018.62 1018.74 1018.82 1018.86 1018.90 1018.90 1018.82
1016.86 1016.74 1016.82 1016.90 1016.94 1016.94 1016.98 1017.02 1016.98 1016.82 1016.74 1016.82 1016.98 1016.86 1016.94 1017.18 1017.22 1017.22 1017.10 1016.90 1016.90 1017.10 1017.18 1017.02 1016.98 1016.74 1016.86 1016.94 1017.10 1017.26 1017.38 1017.46 1017.62 1017.82 1018.10 1018.26 1018.38 1018.50 1018.58 1018.66 1018.70 1018.78
1017.14 1017.02 1017.06 1017.02 1016.94 1016.94 1016.98 1017.06 1017.10 1017.10 1016.90 1016.74 1016.70 1016.74 1016.90 1016.98 1017.06 1017.18 1017.14 1017.10 1016.90 1016.82 1016.78 1016.70 1016.70 1016.54 1016.62 1016.70 1016.78 1016.90 1017.02 1017.34 1017.38 1017.46 1017.70 1017.82 1017.98 1018.10 1018.18 1018.30 1018.34 1018.46
1017.30 1017.18 1017.14 1017.06 1016.98 1016.98 1017.02 1017.06 1017.10 1017.06 1017.02 1016.94 1016.90 1016.94 1017.02 1017.06 1017.02 1017.06 1016.98 1016.98 1016.94 1016.82 1016.78 1016.74 1016.50 1016.30 1016.42 1016.54 1016.66 1016.78 1016.90 1017.26 1017.26 1017.22 1017.34 1017.46 1017.54 1017.62 1017.74 1017.78 1017.82 1017.90
1017.54 1017.42 1017.18 1017.02 1017.10 1017.10 1017.18 1017.22 1017.18 1017.14 1017.14 1016.90 1016.86 1016.86 1016.86 1016.90 1016.94 1016.86 1016.90 1016.90 1016.90 1016.94 1016.94 1016.94 1016.74 1016.70 1016.62 1016.70 1016.86 1017.14 1017.46 1017.70 1017.78 1017.86 1017.78 1017.66 1017.54 1017.42 1017.38 1017.38 1017.38 1017.46
1017.54 1017.62 1017.38 1017.38 1017.66 1017.66 1017.50 1017.46 1017.38 1017.30 1017.14 1016.90 1016.98 1016.94 1017.02 1017.06 1017.02 1016.94 1016.78 1016.82 1016.86 1016.86 1016.98 1016.98 1016.78 1016.62 1016.58 1016.62 1016.62 1016.70 1016.86 1017.10 1017.34 1017.50 1017.58 1017.58 1017.38 1017.18 1017.14 1017.14 1017.14 1017.10
1017.42 1017.70 1017.74 1017.78 1018.10 1018.26 1018.06 1017.90 1017.50 1017.26 1017.22 1016.98 1017.14 1017.14 1017.10 1016.98 1016.86 1016.82 1016.70 1016.66 1016.78 1016.78 1016.66 1016.86 1016.78 1016.42 1016.26 1016.26 1016.26 1016.34 1016.46 1016.86 1017.10 1017.26 1017.34 1017.34 1017.18 1016.94 1016.82 1016.74 1016.70 1016.70
1018.26 1018.30 1018.42 1018.54 1018.62 1018.26 1017.94 1017.94 1017.62 1017.42 1017.22 1017.18 1017.10 1016.94 1016.86 1016.70 1016.66 1016.78 1016.74 1016.66 1016.54 1016.50 1016.34 1016.38 1016.38 1016.26 1016.10 1016.02 1016.02 1016.10 1016.26 1016.46 1016.70 1016.98 1017.10 1016.98 1016.94 1016.86 1016.62 1016.54 1016.38 1016.22
1018.34 1018.46 1018.42 1018.34 1018.14 1017.94 1017.70 1017.62 1017.62 1017.58 1017.54 1017.50 1017.34 1017.02 1016.94 1016.78 1016.70 1016.70 1016.74 1016.58 1016.34 1016.30 1016.26 1016.10 1016.02 1015.86 1015.86 1015.78 1015.82 1015.98 1016.02 1016.14 1016.30 1016.62 1016.78 1016.62 1016.46 1016.34 1016.42 1016.18 1016.02 1015.90
Wind_Speed
5 5 7 7 7 7 7 7 6 7 6 6 6 6 6 6 5 5 6 5 5 5 4 4 4 3 2 2 3 2 3 3 3 2 3 2 3 2 4 4 4 3
5 5 5 5 5 5 6 7 7 7 6 6 6 5 5 5 6 5 6 5 5 5 5 5 4 4 3 3 3 3 2 2 3 1 1 2 3 3 4 4 3 3
5 5 6 7 6 6 7 6 6 6 6 6 5 5 6 5 6 5 5 6 6 6 5 5 4 4 4 4 3 3 3 3 3 2 1 3 2 3 4 4 3 3
7 7 7 6 6 7 6 6 5 5 5 5 6 6 6 5 6 6 6 7 6 6 5 5 5 4 4 4 4 4 3 4 3 2 2 2 2 2 4 3 3 3
8 7 6 5 5 6 5 6 7 6 5 6 6 6 6 5 6 6 7 6 6 6 5 6 5 5 5 5 4 5 4 4 3 2 2 3 3 3 3 3 3 4
6 6 5 6 6 6 6 7 7 7 6 6 7 6 6 6 6 6 7 7 6 6 6 6 6 5 5 5 5 5 5 4 4 3 3 3 4 3 3 3 3 3
9 7 6 6 6 6 7 7 6 7 7 7 5 6 7 7 6 6 8 8 7 6 7 6 6 6 5 5 6 5 5 4 3 3 4 4 3 4 3 3 3 3
10 8 7 6 6 6 6 6 7 7 7 6 7 7 6 7 7 6 6 8 8 8 7 7 6 6 6 5 5 5 5 4 4 4 4 4 3 4 4 3 3 3
9 9 8 8 8 7 7 7 7 6 6 8 8 7 6 6 7 7 7 7 8 8 7 7 7 7 6 6 6 6 5 4 4 4 5 5 5 5 5 4 3 3
5 7 9 9 9 8 9 8 7 7 6 7 8 7 8 6 6 7 7 8 8 8 8 6 7 6 6 7 7 7 6 6 5 4 4 5 5 5 5 4 4 4
1 2 5 9 10 9 10 9 8 8 7 8 7 7 7 7 6 6 8 8 9 9 8 8 7 7 7 7 6 6 7 7 6 5 5 6 6 6 6 5 5 5
6 4 3 4 4 2 2 5 8 8 8 8 7 8 7 7 8 7 7 9 10 9 9 9 8 7 8 8 8 7 7 7 7 7 7 6 6 6 6 5 5 6
7 6 5 6 5 5 4 1 1 4 7 8 7 8 8 7 8 9 8 8 9 9 10 9 9 8 8 8 8 8 8 8 8 7 7 6 6 7 7 7 7 6
6 7 7 6 5 3 4 4 4 2 3 3 4 4 6 8 9 9 9 8 9 9 9 8 8 8 8 8 8 9 8 8 8 8 8 7 7 7 7 7 8 7
6 6 6 6 4 3 3 3 3 4 4 4 3 4 5 5 6 8 9 9 9 9 8 7 8 8 8 8 8 8 8 8 8 8 8 8 7 7 7 7 7 7
6 5 6 6 6 5 5 5 5 4 4 5 5 5 4 4 4 4 7 9 10 9 8 8 7 7 9 14 12 9 9 8 8 8 8 7 8 7 7 7 8 7
5 5 6 7 7 7 7 7 8 8 7 6 6 6 5 4 4 5 5 7 9 10 10 9 9 9 14 15 16 16 10 8 9 8 7 8 7 8 8 8 7 7
4 3 4 5 5 6 7 8 9 8 8 8 7 7 7 5 5 6 6 6 7 8 10 10 10 13 16 16 17 18 15 10 9 8 7 7 7 8 7 7 7 7
2 3 3 3 4 3 3 3 5 6 7 6 7 5 4 4 5 3 4 5 7 7 9 10 9 13 16 17 17 18 18 14 8 8 8 8 8 8 7 7 7 7
4 3 2 1 1 3 2 3 4 4 4 3 3 2 3 4 5 6 4 3 4 5 7 8 9 11 15 17 18 18 18 14 10 9 9 9 9 9 8 8 8 8
5 4 3 3 3 1 1 2 3 3 3 3 2 2 3 3 4 4 4 3 3 3 2 2 5 7 11 14 15 17 16 12 9 9 8 8 9 8 9 9 9 9
5 6 6 5 4 3 3 2 1 2 3 2 2 2 1 1 2 2 3 3 2 1 1 2 2 10 8 3 4 4 2 2 3 4 5 6 6 7 8 8 9 9
6 7 6 7 6 4 3 4 4 4 4 1 1 1 2 2 3 3 2 2 2 2 2 1 0 4 7 7 6 7 7 4 6 6 6 6 7 5 5 6 7 8
7 7 7 6 4 3 3 4 5 4 3 1 1 1 1 2 2 3 3 3 3 3 4 4 3 4 5 8 11 12 9 5 4 5 5 6 7 7 6 6 7 12
1 2 3 4 5 4 1 1 3 3 3 4 3 3 3 2 2 3 3 3 4 3 6 5 5 7 11 11 11 11 8 5 6 5 6 6 6 7 7 7 7 9
2 2 2 3 4 3 3 1 1 3 3 2 4 4 3 3 3 4 4 3 4 4 4 4 5 5 11 16 14 14 13 8 7 7 8 8 7 8 7 7 9 9
Wind_Direction
182 183 177 177 173 178 174 177 184 178 182 180 185 194 187 194 194 188 192 193 193 191 197 184 184 191 190 177 170 184 192 197 230 239 224 234 263 266 286 292 303 291
192 193 177 178 168 170 173 173 177 180 185 186 191 189 201 191 201 191 192 196 194 194 189 183 182 186 186 174 160 165 180 183 220 218 224 260 266 289 285 288 301 302
192 193 182 181 182 179 176 176 169 183 187 195 190 185 194 201 201 198 196 194 195 192 185 185 181 183 185 180 171 180 188 193 226 268 248 247 274 278 270 281 299 306
197 193 189 183 183 184 180 175 176 180 189 191 201 195 189 196 197 196 200 200 191 193 186 181 188 184 184 185 177 187 197 204 214 219 268 288 285 272 276 288 294 296
194 197 191 181 181 183 179 183 189 185 191 203 206 209 198 195 185 193 193 197 189 191 188 188 189 191 186 188 185 193 197 214 223 192 209 252 270 261 267 283 293 300
194 198 196 186 182 178 186 190 195 192 196 201 212 208 209 201 187 186 186 187 190 191 193 191 191 199 191 190 189 199 199 208 223 199 215 238 261 258 263 280 287 292
194 191 198 196 192 189 189 192 196 200 201 204 200 209 209 205 199 188 183 184 187 194 196 193 195 202 199 190 191 196 204 208 214 207 222 240 237 263 266 274 278 275
195 191 190 191 199 203 203 197 197 201 205 206 205 209 200 205 205 198 188 186 187 192 198 196 195 201 202 194 200 203 208 206 214 213 220 235 225 239 249 247 245 264
191 194 190 188 197 204 212 212 210 207 204 205 212 214 210 204 202 202 193 189 190 190 192 198 198 200 201 196 204 206 211 218 215 210 216 227 226 234 238 236 244 245
179 199 195 195 199 204 209 213 217 217 206 211 210 211 214 216 202 199 192 193 195 194 191 191 197 202 202 202 203 203 209 217 223 219 221 227 229 231 233 227 230 240
44 107 193 200 202 203 207 209 214 214 210 212 210 213 214 212 212 202 193 194 200 200 201 199 194 196 203 207 209 205 206 211 216 217 220 226 231 233 231 220 225 224
215 181 175 159 134 123 215 228 215 211 212 211 208 213 213 213 210 208 201 199 201 201 202 203 199 194 199 205 207 207 208 212 213 214 217 218 223 227 230 224 222 229
175 176 179 190 187 183 164 136 262 205 203 214 210 211 207 209 212 211 212 205 205 203 203 202 201 199 198 201 204 204 206 210 215 215 217 219 223 224 224 220 221 224
170 173 185 201 205 206 202 192 185 224 180 162 165 199 219 214 208 210 215 212 211 209 209 203 202 202 202 201 202 202 201 208 211 213 216 221 225 227 226 225 220 220
166 176 188 193 194 196 230 251 227 201 211 197 171 183 197 217 224 215 211 218 220 214 212 207 203 207 203 200 201 207 204 205 206 209 212 219 223 225 226 230 230 226
170 177 182 186 183 200 216 228 237 232 219 224 211 200 203 206 211 223 222 218 220 219 213 208 209 208 206 200 199 201 206 211 209 209 209 213 218 225 230 226 228 228
183 191 188 189 194 196 199 209 222 221 222 231 234 224 217 215 205 208 220 225 224 220 216 213 212 212 207 202 205 205 202 207 209 214 210 211 214 220 230 234 236 236
181 194 200 205 203 207 202 202 204 209 214 220 227 229 227 217 213 212 208 212 219 226 224 219 218 214 206 205 207 210 210 210 213 216 214 212 216 220 226 230 236 239
304 201 206 222 233 239 253 252 231 217 210 210 221 226 225 225 228 223 225 213 209 214 225 226 227 219 211 209 210 213 216 217 220 220 221 222 217 219 221 225 228 232
356 58 66 86 194 210 233 255 258 257 256 248 239 205 197 211 209 222 231 238 229 218 220 226 226 228 215 214 213 214 216 213 225 222 222 226 225 223 224 225 223 224
2 7 40 39 41 54 199 234 254 273 275 270 273 264 246 220 215 211 224 228 248 258 249 241 245 240 223 220 221 220 223 214 230 229 227 228 229 228 230 231 229 227
8 10 17 22 28 26 18 359 309 255 243 250 228 244 260 241 247 209 203 208 198 209 287 313 40 68 71 89 204 210 171 203 256 278 282 273 256 244 238 234 234 230
15 7 15 13 354 349 20 21 8 356 341 320 226 212 217 214 214 225 212 198 185 167 166 157 358 76 97 104 112 155 158 172 187 210 230 242 249 248 242 244 245 238
10 2 360 357 339 334 10 4 339 333 302 316 334 281 242 220 216 224 224 210 201 201 180 170 168 184 158 152 156 162 160 160 174 185 208 223 247 248 241 236 236 244
33 327 326 316 296 302 328 89 316 304 315 307 272 230 229 251 252 241 235 222 218 211 197 191 192 179 177 180 183 180 171 168 166 177 191 217 218 237 241 244 243 236
323 305 274 260 272 272 287 266 250 310 303 274 275 264 266 253 237 232 239 235 204 198 213 214 212 181 174 185 184 185 182 173 186 173 207 215 216 223 235 237 237 243